GBAJR EGCB-EGCB

Flight info

Callsign GBAJR
Flight time 0h 1m
Altitude 3000
Route EGCB
Aircraft XX19/L-SDFYR/S

Departure

Time 2026-04-18 18:29
Airport Manchester Barton Aerodrome (EGCB)

Arrival

Time 2026-04-18 18:31
Airport Manchester Barton Aerodrome (EGCB)
Time Latitude Longitude Altitude Speed Heading
2026-04-18 18:24 53.47061 -2.38682 73 ft 0 kts 34°
2026-04-18 18:25 53.47064 -2.38678 74 ft 3 kts 33°
2026-04-18 18:25 53.47097 -2.38597 76 ft 10 kts 81°
2026-04-18 18:25 53.47058 -2.38496 72 ft 12 kts 128°
2026-04-18 18:25 53.47083 -2.38426 76 ft 9 kts 297°
2026-04-18 18:26 53.47117 -2.38486 75 ft 9 kts 315°
2026-04-18 18:26 53.47199 -2.38608 79 ft 10 kts 318°
2026-04-18 18:26 53.47214 -2.38648 78 ft 0 kts 256°
2026-04-18 18:27 53.47214 -2.38649 78 ft 0 kts 256°
2026-04-18 18:28 53.47207 -2.38733 77 ft 40 kts 261°
2026-04-18 18:28 53.47119 -2.39384 231 ft 59 kts 263°
2026-04-18 18:28 53.47215 -2.40031 331 ft 60 kts 316°
2026-04-18 18:29 53.47599 -2.40389 390 ft 66 kts 349°
2026-04-18 18:29 53.47993 -2.40213 380 ft 57 kts 337°
2026-04-18 18:29 53.48245 -2.40612 688 ft 54 kts 315°
2026-04-18 18:29 53.48578 -2.40492 833 ft 80 kts 62°
2026-04-18 18:30 53.48571 -2.39445 825 ft 90 kts 86°
2026-04-18 18:30 53.48605 -2.38446 745 ft 75 kts 75°
2026-04-18 18:30 53.48424 -2.37690 523 ft 76 kts 156°
2026-04-18 18:30 53.47935 -2.37452 377 ft 64 kts 175°
2026-04-18 18:31 53.47545 -2.37334 384 ft 52 kts 196°
2026-04-18 18:31 53.47317 -2.37678 355 ft 48 kts 249°
2026-04-18 18:31 53.47236 -2.38208 236 ft 45 kts 265°
2026-04-18 18:31 53.47197 -2.38691 93 ft 31 kts 264°
2026-04-18 18:32 53.47170 -2.38885 69 ft 11 kts 205°
2026-04-18 18:32 53.47123 -2.38847 75 ft 8 kts 90°